Content
SEND FEEDBACK

Daily
Averages
Monthly
Summary
United States of America

CASTALIA, OHIO


Home > North America > United States > Ohio
Elevation: 589 feet     Latitude: 41 27N     Longitude: 082 43W

WEATHER
 
SELECT A DAY
Number of Records: 184,005;   Date Range: 10/8/98 - 10/30/14
 
SHARE

PRINT THIS DATA

[ ← Previous Day ]
WEATHER ALMANAC - MAY 4, 2013
[ Next Day → ]
[ °C ]   °F
Weather ElementAverageHighLow
Temperature64.3 °F73 °F (3:53 pm)55.9 °F (6:53 am)
Dewpoint37.1 °F43 °F (1:53 am)30.9 °F (10:53 am)
Humidity38.2 %55 % (4:53 am)23 % (3:53 pm)
Barometer30.10 in30.15 in (7:53 am)30.05 in (5:53 pm)
Wind Speed12 mph17.3 mph (5:53 pm)
Wind Gust24.2 mph (3:53 pm)
Weather ElementAverage
Visibility10 mi
Wind DirectionSSE (143 °)

Weather ElementTotal
Precipitation---
Heating Degree Days0.5 (Base 65)
Growing Degree Days14.5 (Base 50)
Averaged from 23 records on May 4, 2013
WEATHER CONDITIONS BREAKOUT
WIND DIRECTION BREAKOUT
WEATHER BY HOUR - MAY 4, 2013
[ °C ]   °F
Local TimeTemperatureDewpointHumidityBarometerVisibilityWind DirectionWind SpeedGust SpeedPrecipitationEventsConditions
1:53 AM63.0 °F43.0 °F48 %30.12 in10.0 miSSE (150°)12.7 mph20.7 mphClear
2:53 AM62.1 °F43.0 °F50 %30.11 in10.0 miSSE (160°)13.8 mphClear
3:53 AM60.1 °F43.0 °F53 %30.10 in10.0 miSSE (150°)11.5 mphClear
4:53 AM59.0 °F43.0 °F55 %30.11 in10.0 miSSE (150°)11.5 mphClear
5:53 AM57.0 °F39.9 °F53 %30.12 in10.0 miSE (140°)12.7 mphClear
6:53 AM55.9 °F37.9 °F51 %30.14 in10.0 miSE (140°)11.5 mphClear
7:53 AM55.9 °F34.0 °F44 %30.15 in10.0 miSE (140°)9.2 mphClear
8:53 AM57.9 °F34.0 °F41 %30.15 in10.0 miSSE (150°)11.5 mph23.0 mphClear
9:53 AM61.0 °F32.0 °F34 %30.14 in10.0 miSE (140°)16.1 mph21.9 mphClear
10:53 AM63.0 °F30.9 °F30 %30.13 in10.0 miSSE (160°)12.7 mphClear
11:53 AM66.0 °F34.0 °F30 %30.12 in10.0 miSouth (170°)15.0 mph23.0 mphClear
12:53 PM66.9 °F37.9 °F34 %30.12 in10.0 miSSE (150°)15.0 mphClear
1:53 PM69.1 °F37.0 °F31 %30.10 in10.0 miSouth (170°)15.0 mph23.0 mphClear
2:53 PM71.1 °F36.0 °F28 %30.09 in10.0 miSE (140°)8.1 mphClear
3:53 PM73.0 °F33.1 °F23 %30.07 in10.0 miSSE (150°)15.0 mph24.2 mphClear
4:53 PM73.0 °F33.1 °F23 %30.06 in10.0 miSE (130°)11.5 mphClear
5:53 PM73.0 °F34.0 °F24 %30.05 in10.0 miSSE (150°)17.3 mph20.7 mphClear
6:53 PM72.0 °F32.0 °F23 %30.06 in10.0 miSSE (150°)16.1 mph21.9 mphClear
7:53 PM68.0 °F36.0 °F31 %30.06 in10.0 miSE (140°)8.1 mphClear
8:53 PM64.9 °F37.9 °F37 %30.08 in10.0 miESE (120°)6.9 mphClear
9:53 PM63.0 °F39.9 °F43 %30.09 in10.0 miESE (110°)8.1 mphClear
10:53 PM62.1 °F41.0 °F46 %30.09 in10.0 miESE (110°)8.1 mphClear
11:53 PM62.1 °F41.0 °F46 %30.09 in10.0 miESE (120°)8.1 mphClear
Hourly data recorded from KLPR, located miles away from Castalia, Ohio







STORIES FROM OUR PARTNERS